| time (UTC) | temp C | wind direction | speed KPH | gust KPH | rain 1hr cm | rain 24hr cm | rain mn cm | humidity % | barometer mb |
| 20260507203009 | 23 | 64 | 9.7 | 25.7 | 0.00 | 0.00 | 0.00 | 15 | 1008.1 |
| 20260507200918 | 23 | 19 | 8.0 | 20.9 | 0.00 | 0.00 | 0.00 | 16 | 1008.5 |
| 20260507195922 | 23 | 81 | 8.0 | 20.9 | 0.00 | 0.00 | 0.00 | 16 | 1008.6 |
| 20260507194934 | 23 | 55 | 9.7 | 24.1 | 0.00 | 0.00 | 0.00 | 16 | 1008.8 |
| 20260507193949 | 22 | 59 | 11.3 | 24.1 | 0.00 | 0.00 | 0.00 | 16 | 1009.0 |
| 20260507192939 | 22 | 61 | 4.8 | 20.9 | 0.00 | 0.00 | 0.00 | 17 | 1009.1 |
| 20260507192002 | 22 | 125 | 6.4 | 17.7 | 0.00 | 0.00 | 0.00 | 15 | 1009.2 |
| 20260507190932 | 22 | 67 | 4.8 | 16.1 | 0.00 | 0.00 | 0.00 | 16 | 1009.4 |
| 20260507185916 | 22 | 285 | 3.2 | 14.5 | 0.00 | 0.00 | 0.00 | 15 | 1009.6 |
| 20260507184932 | 22 | 32 | 9.7 | 20.9 | 0.00 | 0.00 | 0.00 | 14 | 1009.8 |
| 20260507183924 | 22 | 43 | 8.0 | 20.9 | 0.00 | 0.00 | 0.00 | 15 | 1009.9 |
| 20260507182944 | 22 | 22 | 8.0 | 19.3 | 0.00 | 0.00 | 0.00 | 15 | 1010.0 |
| 20260507181953 | 22 | 359 | 8.0 | 20.9 | 0.00 | 0.00 | 0.00 | 16 | 1010.3 |
| 20260507175824 | 21 | 313 | 8.0 | 25.7 | 0.00 | 0.00 | 0.00 | 17 | 1010.5 |
| 20260507174805 | 21 | 346 | 6.4 | 25.7 | 0.00 | 0.00 | 0.00 | 18 | 1010.7 |
| 20260507173825 | 20 | 166 | 6.4 | 14.5 | 0.00 | 0.00 | 0.00 | 19 | 1010.9 |
| 20260507172756 | 21 | 92 | 3.2 | 9.7 | 0.00 | 0.00 | 0.00 | 19 | 1011.0 |
| 20260507165427 | 20 | 59 | 4.8 | 17.7 | 0.00 | 0.00 | 0.00 | 21 | 1011.4 |
| 20260507164435 | 20 | 56 | 3.2 | 14.5 | 0.00 | 0.00 | 0.00 | 20 | 1011.5 |
| 20260507163424 | 19 | 36 | 6.4 | 14.5 | 0.00 | 0.00 | 0.00 | 22 | 1011.6 |
| 20260507162428 | 18 | 48 | 8.0 | 16.1 | 0.00 | 0.00 | 0.00 | 24 | 1011.7 |
| 20260507155141 | 17 | 53 | 9.7 | 17.7 | 0.00 | 0.00 | 0.00 | 25 | 1012.0 |
| 20260507154202 | 18 | 29 | 8.0 | 17.7 | 0.00 | 0.00 | 0.00 | 25 | 1012.0 |
| 20260507152052 | 18 | 49 | 6.4 | 17.7 | 0.00 | 0.00 | 0.00 | 26 | 1012.1 |
| 20260507151116 | 18 | 19 | 6.4 | 17.7 | 0.00 | 0.00 | 0.00 | 25 | 1012.2 |
| 20260507150114 | 18 | 60 | 4.8 | 11.3 | 0.00 | 0.00 | 0.00 | 26 | 1012.3 |
| 20260507145053 | 17 | 72 | 6.4 | 12.9 | 0.00 | 0.00 | 0.00 | 27 | 1012.3 |
| 20260507143020 | 17 | 14 | 4.8 | 9.7 | 0.00 | 0.00 | 0.00 | 27 | 1012.3 |
| 20260507142003 | 17 | 38 | 4.8 | 9.7 | 0.00 | 0.00 | 0.00 | 27 | 1012.2 |
| 20260507141019 | 17 | 353 | 3.2 | 8.0 | 0.00 | 0.00 | 0.00 | 27 | 1012.3 |
| 20260507134924 | 13 | 247 | 0.0 | 0.0 | 0.00 | 0.00 | 0.00 | 33 | 1012.6 |
| 20260507133934 | 12 | 246 | 0.0 | 1.6 | 0.00 | 0.00 | 0.00 | 32 | 1012.5 |
| 20260507132948 | 12 | 248 | 0.0 | 1.6 | 0.00 | 0.00 | 0.00 | 32 | 1012.4 |
| 20260507130820 | 10 | 132 | 0.0 | 1.6 | 0.00 | 0.00 | 0.00 | 34 | 1012.3 |
| 20260507124645 | 10 | 132 | 0.0 | 1.6 | 0.00 | 0.00 | 0.00 | 36 | 1012.0 |
| 20260507123708 | 10 | 132 | 0.0 | 0.0 | 0.00 | 0.00 | 0.00 | 37 | 1012.0 |
| 20260507122633 | 10 | 132 | 1.6 | 3.2 | 0.00 | 0.00 | 0.00 | 37 | 1012.0 |
| 20260507121632 | 11 | 132 | 1.6 | 4.8 | 0.00 | 0.00 | 0.00 | 38 | 1011.9 |
| 20260507120634 | 11 | 270 | 1.6 | 8.0 | 0.00 | 0.00 | 0.00 | 38 | 1011.7 |
| 20260507115618 | 12 | 244 | 6.4 | 12.9 | 0.00 | 0.00 | 0.00 | 37 | 1011.7 |
| 20260507113454 | 12 | 290 | 6.4 | 9.7 | 0.00 | 0.00 | 0.00 | 38 | 1011.8 |
| 20260507112452 | 12 | 307 | 4.8 | 9.7 | 0.00 | 0.00 | 0.00 | 38 | 1011.8 |
| 20260507111507 | 12 | 296 | 1.6 | 4.8 | 0.00 | 0.00 | 0.00 | 37 | 1012.0 |
| 20260507110513 | 11 | 296 | 0.0 | 3.2 | 0.00 | 0.00 | 0.00 | 37 | 1012.1 |
| 20260507105530 | 11 | 348 | 1.6 | 4.8 | 0.00 | 0.00 | 0.00 | 37 | 1012.1 |
| 20260507104521 | 11 | 346 | 3.2 | 9.7 | 0.00 | 0.00 | 0.00 | 38 | 1012.0 |
| 20260507103544 | 11 | 261 | 6.4 | 9.7 | 0.00 | 0.00 | 0.00 | 37 | 1012.1 |
| 20260507102524 | 12 | 250 | 4.8 | 8.0 | 0.00 | 0.00 | 0.00 | 35 | 1012.2 |
| 20260507101513 | 12 | 253 | 6.4 | 9.7 | 0.00 | 0.00 | 0.00 | 34 | 1012.2 |
| 20260507100503 | 12 | 252 | 8.0 | 12.9 | 0.00 | 0.00 | 0.00 | 33 | 1012.3 |
| 20260507095527 | 12 | 245 | 8.0 | 12.9 | 0.00 | 0.00 | 0.00 | 33 | 1012.3 |
| 20260507094526 | 11 | 264 | 6.4 | 9.7 | 0.00 | 0.00 | 0.00 | 33 | 1012.3 |
| 20260507093517 | 11 | 255 | 4.8 | 6.4 | 0.00 | 0.00 | 0.00 | 32 | 1012.4 |
| 20260507092500 | 11 | 229 | 3.2 | 4.8 | 0.00 | 0.00 | 0.00 | 31 | 1012.5 |
| 20260507091457 | 12 | 263 | 4.8 | 6.4 | 0.00 | 0.00 | 0.00 | 31 | 1012.4 |
| 20260507090521 | 12 | 268 | 4.8 | 6.4 | 0.00 | 0.00 | 0.00 | 30 | 1012.6 |
| 20260507085450 | 12 | 280 | 1.6 | 4.8 | 0.00 | 0.00 | 0.00 | 29 | 1012.6 |
| 20260507083308 | 11 | 261 | 0.0 | 3.2 | 0.00 | 0.00 | 0.00 | 30 | 1012.8 |
| 20260507082319 | 11 | 260 | 1.6 | 4.8 | 0.00 | 0.00 | 0.00 | 31 | 1012.8 |
| 20260507080228 | 12 | 223 | 3.2 | 4.8 | 0.00 | 0.00 | 0.00 | 29 | 1013.0 |
| 20260507075154 | 12 | 231 | 4.8 | 9.7 | 0.00 | 0.00 | 0.00 | 29 | 1013.1 |
| 20260507073020 | 12 | 245 | 6.4 | 12.9 | 0.00 | 0.00 | 0.00 | 28 | 1013.1 |
| 20260507065740 | 13 | 209 | 9.7 | 17.7 | 0.00 | 0.00 | 0.00 | 27 | 1013.3 |
| 20260507064744 | 13 | 243 | 9.7 | 17.7 | 0.00 | 0.00 | 0.00 | 27 | 1013.3 |
| 20260507062556 | 13 | 236 | 9.7 | 17.7 | 0.00 | 0.00 | 0.00 | 27 | 1013.2 |
| 20260507061543 | 12 | 226 | 9.7 | 14.5 | 0.00 | 0.00 | 0.00 | 27 | 1013.4 |
| 20260507060555 | 12 | 252 | 8.0 | 12.9 | 0.00 | 0.00 | 0.00 | 27 | 1013.5 |
| 20260507055535 | 12 | 249 | 8.0 | 12.9 | 0.00 | 0.00 | 0.00 | 27 | 1013.6 |
| 20260507054540 | 12 | 242 | 6.4 | 9.7 | 0.00 | 0.00 | 0.00 | 27 | 1013.6 |
| 20260507053507 | 12 | 261 | 6.4 | 8.0 | 0.00 | 0.00 | 0.00 | 27 | 1013.6 |
| 20260507052520 | 12 | 252 | 4.8 | 9.7 | 0.00 | 0.00 | 0.00 | 27 | 1013.6 |
| 20260507051448 | 12 | 249 | 6.4 | 12.9 | 0.00 | 0.00 | 0.00 | 27 | 1013.6 |
| 20260507050457 | 12 | 241 | 8.0 | 12.9 | 0.00 | 0.00 | 0.00 | 26 | 1013.5 |
| 20260507045516 | 12 | 259 | 8.0 | 11.3 | 0.00 | 0.00 | 0.00 | 27 | 1013.4 |
| 20260507044522 | 12 | 232 | 6.4 | 9.7 | 0.00 | 0.00 | 0.00 | 27 | 1013.4 |
| 20260507043514 | 12 | 229 | 6.4 | 8.0 | 0.00 | 0.00 | 0.00 | 27 | 1013.4 |
| 20260507042506 | 12 | 233 | 4.8 | 8.0 | 0.00 | 0.00 | 0.00 | 27 | 1013.3 |
| 20260507041521 | 12 | 221 | 3.2 | 6.4 | 0.00 | 0.00 | 0.00 | 26 | 1013.3 |
| 20260507040502 | 12 | 238 | 4.8 | 8.0 | 0.00 | 0.00 | 0.00 | 26 | 1013.2 |
| 20260507035454 | 13 | 230 | 6.4 | 11.3 | 0.00 | 0.00 | 0.00 | 26 | 1013.0 |
| 20260507034438 | 12 | 211 | 6.4 | 11.3 | 0.00 | 0.00 | 0.00 | 26 | 1012.8 |
| 20260507033501 | 13 | 226 | 6.4 | 9.7 | 0.00 | 0.00 | 0.00 | 25 | 1012.7 |
| 20260507032444 | 13 | 210 | 6.4 | 9.7 | 0.00 | 0.00 | 0.00 | 25 | 1012.6 |
| 20260507031411 | 13 | 223 | 6.4 | 9.7 | 0.00 | 0.00 | 0.00 | 25 | 1012.4 |
| 20260507030351 | 13 | 221 | 4.8 | 9.7 | 0.00 | 0.00 | 0.00 | 24 | 1012.2 |
| 20260507024217 | 13 | 214 | 6.4 | 14.5 | 0.00 | 0.00 | 0.00 | 23 | 1011.8 |
| 20260507023228 | 14 | 211 | 6.4 | 14.5 | 0.00 | 0.00 | 0.00 | 22 | 1011.7 |
| 20260507022206 | 14 | 182 | 9.7 | 19.3 | 0.00 | 0.00 | 0.00 | 22 | 1011.5 |
| 20260507021144 | 15 | 217 | 9.7 | 19.3 | 0.00 | 0.00 | 0.00 | 21 | 1011.3 |
| 20260507020138 | 15 | 213 | 9.7 | 20.9 | 0.00 | 0.00 | 0.00 | 20 | 1011.3 |
| 20260507015113 | 15 | 146 | 11.3 | 20.9 | 0.00 | 0.00 | 0.00 | 19 | 1011.2 |
| 20260507014048 | 16 | 179 | 12.9 | 22.5 | 0.00 | 0.00 | 0.00 | 19 | 1011.0 |
| 20260507013046 | 16 | 176 | 14.5 | 27.4 | 0.00 | 0.00 | 0.00 | 18 | 1010.9 |
| 20260507012041 | 17 | 195 | 14.5 | 27.4 | 0.00 | 0.00 | 0.00 | 18 | 1010.7 |
| 20260507005948 | 17 | 177 | 12.9 | 24.1 | 0.00 | 0.00 | 0.00 | 17 | 1010.6 |
| 20260507004930 | 18 | 140 | 11.3 | 27.4 | 0.00 | 0.00 | 0.00 | 17 | 1010.5 |
| 20260507003951 | 18 | 160 | 14.5 | 27.4 | 0.00 | 0.00 | 0.00 | 18 | 1010.4 |
| 20260507002939 | 18 | 163 | 14.5 | 27.4 | 0.00 | 0.00 | 0.00 | 19 | 1010.2 |
| 20260507001916 | 18 | 163 | 14.5 | 27.4 | 0.00 | 0.00 | 0.00 | 18 | 1010.2 |
| 20260507000903 | 18 | 148 | 14.5 | 27.4 | 0.00 | 0.00 | 0.00 | 18 | 1010.0 |
| 20260506235902 | 18 | 156 | 12.9 | 30.6 | 0.00 | 0.00 | 0.00 | 18 | 1010.0 |
| 20260506234902 | 18 | 142 | 14.5 | 30.6 | 0.00 | 0.00 | 0.00 | 18 | 1010.0 |
| 20260506232810 | 18 | 182 | 14.5 | 30.6 | 0.00 | 0.00 | 0.00 | 17 | 1009.9 |
| 20260506231811 | 18 | 192 | 17.7 | 27.4 | 0.00 | 0.00 | 0.00 | 18 | 1009.8 |
| 20260506230740 | 18 | 150 | 16.1 | 32.2 | 0.00 | 0.00 | 0.00 | 17 | 1009.8 |
| 20260506225707 | 19 | 180 | 14.5 | 32.2 | 0.00 | 0.00 | 0.00 | 17 | 1009.9 |
| 20260506224647 | 19 | 234 | 14.5 | 29.0 | 0.00 | 0.00 | 0.00 | 17 | 1009.9 |
| 20260506223652 | 20 | 174 | 14.5 | 37.0 | 0.00 | 0.00 | 0.00 | 17 | 1010.0 |
| 20260506222649 | 18 | 237 | 20.9 | 37.0 | 0.00 | 0.00 | 0.00 | 17 | 1010.0 |
| 20260506220457 | 18 | 156 | 17.7 | 33.8 | 0.00 | 0.00 | 0.00 | 16 | 1010.1 |
| 20260506215445 | 18 | 169 | 19.3 | 33.8 | 0.00 | 0.00 | 0.00 | 17 | 1010.1 |
| 20260506214458 | 19 | 194 | 12.9 | 29.0 | 0.00 | 0.00 | 0.00 | 17 | 1010.1 |
| 20260506213518 | 18 | 195 | 14.5 | 29.0 | 0.00 | 0.00 | 0.00 | 17 | 1010.3 |
| 20260506212540 | 18 | 180 | 14.5 | 29.0 | 0.00 | 0.00 | 0.00 | 20 | 1010.3 |
| 20260506210349 | 18 | 159 | 12.9 | 33.8 | 0.00 | 0.00 | 0.00 | 20 | 1010.9 |
| 20260506204309 | 18 | 164 | 14.5 | 29.0 | 0.00 | 0.00 | 0.00 | 22 | 1010.8 |